Location: downtown San Diego
(32.7310°N, 117.1990°W)
Time: 23:51:05
(UTC-07:00)

Cosmos 1943 Rocket - Pass Details

Date: 19 May 2017
Orbit: 813 x 843 km, 71.0° (Epoch: 24 July)

Event Time Altitude Azimuth Distance (km) Brightness Sun altitude
Rises 21:52:31 0° 335° (NNW) 3,385 6.6 -23.0°
Reaches altitude 10° 21:54:59 10° 332° (NNW) 2,444 5.6 -23.4°
Maximum altitude 22:00:29 60° 253° (WSW) 938 2.5 -24.2°
Enters shadow 22:02:03 44° 197° (SSW) 1,136 2.6 -24.4°
